contact: severine.martini@mio.osupytheas.fr, dominique.lefevre@mio.osupytheas.fr
Project:EMSO Ligure-ouest http://www.emso-fr.org/EMSO-France
Sensor Microcat Sea-Bird SBE37 SMP,  Serial 57510 
DOI : "https://doi.org/10.17882/97948" 
Title:EMSO Ligure Ouest : Data Bathybot capteur Microcat - deploiement 2023-04-28
Datetime,Profondeur,Latitude,Longitude,Temperature,Conductivite,Pression,Salinite
time,m,degree_north,degree_east,degree_C,S/m,db,PSU 
2023-11-21T00:00:49,2420,42.8014,5.9826,13.2990,4.34194,2453.514,36.0707
2023-11-21T00:03:49,2420,42.8014,5.9826,13.2989,4.34187,2453.537,36.0701
2023-11-21T00:06:49,2420,42.8014,5.9826,13.3003,4.34105,2453.537,36.0611
2023-11-21T00:09:49,2420,42.8014,5.9826,13.2982,4.34053,2453.514,36.0582
2023-11-21T00:12:49,2420,42.8014,5.9826,13.2984,4.34034,2453.506,36.0563
2023-11-21T00:15:49,2420,42.8014,5.9826,13.2983,4.34107,2453.491,36.0632
2023-11-21T00:18:49,2420,42.8014,5.9826,13.3002,4.34138,2453.514,36.0643
2023-11-21T00:21:49,2420,42.8014,5.9826,13.2983,4.33964,2453.499,36.0498
2023-11-21T00:24:49,2420,42.8014,5.9826,13.2988,4.34088,2453.537,36.0609
2023-11-21T00:27:49,2420,42.8014,5.9826,13.2999,4.34059,2453.537,36.0572
2023-11-21T00:30:49,2420,42.8014,5.9826,13.3006,4.34169,2453.551,36.0669
2023-11-21T00:33:49,2420,42.8014,5.9826,13.2992,4.34115,2453.537,36.0631
2023-11-21T00:36:49,2420,42.8014,5.9826,13.3007,4.34089,2453.514,36.0593
2023-11-21T00:39:49,2420,42.8014,5.9826,13.2998,4.34006,2453.537,36.0524
2023-11-21T00:42:49,2420,42.8014,5.9826,13.2991,4.34052,2453.514,36.0573
2023-11-21T00:45:49,2420,42.8014,5.9826,13.2984,4.34116,2453.514,36.0640
2023-11-21T00:48:49,2420,42.8014,5.9826,13.3000,4.34115,2453.574,36.0623
2023-11-21T00:51:49,2420,42.8014,5.9826,13.2974,4.34085,2453.491,36.0620
2023-11-21T00:54:49,2420,42.8014,5.9826,13.2985,4.34060,2453.514,36.0586
2023-11-21T00:57:49,2420,42.8014,5.9826,13.2996,4.34050,2453.537,36.0567
2023-11-21T01:00:49,2420,42.8014,5.9826,13.3003,4.34176,2453.559,36.0677
2023-11-21T01:03:49,2420,42.8014,5.9826,13.3004,4.34037,2453.514,36.0547
2023-11-21T01:06:49,2420,42.8014,5.9826,13.3015,4.34115,2453.514,36.0611
2023-11-21T01:09:49,2420,42.8014,5.9826,13.3009,4.34168,2453.537,36.0665
2023-11-21T01:12:49,2420,42.8014,5.9826,13.2989,4.34152,2453.574,36.0668
2023-11-21T01:15:49,2420,42.8014,5.9826,13.3027,4.34098,2453.559,36.0582
2023-11-21T01:18:49,2420,42.8014,5.9826,13.3017,4.34212,2453.559,36.0698
2023-11-21T01:21:49,2420,42.8014,5.9826,13.3021,4.34230,2453.537,36.0711
2023-11-21T01:24:49,2420,42.8014,5.9826,13.3000,4.34248,2453.537,36.0748
2023-11-21T01:27:49,2420,42.8014,5.9826,13.2991,4.34244,2453.574,36.0752
2023-11-21T01:30:49,2420,42.8014,5.9826,13.2988,4.34224,2453.537,36.0737
2023-11-21T01:33:49,2420,42.8014,5.9826,13.2996,4.34355,2453.574,36.0852
2023-11-21T01:36:49,2420,42.8014,5.9826,13.2997,4.34311,2453.574,36.0809
2023-11-21T01:39:49,2420,42.8014,5.9826,13.2979,4.34311,2453.551,36.0826
2023-11-21T01:42:49,2420,42.8014,5.9826,13.2979,4.34284,2453.537,36.0801
2023-11-21T01:45:49,2420,42.8014,5.9826,13.2985,4.34270,2453.544,36.0782
2023-11-21T01:48:49,2420,42.8014,5.9826,13.3003,4.34276,2453.559,36.0771
2023-11-21T01:51:49,2420,42.8014,5.9826,13.2993,4.34273,2453.559,36.0777
2023-11-21T01:54:49,2420,42.8014,5.9826,13.2985,4.34240,2453.559,36.0755
2023-11-21T01:57:49,2420,42.8014,5.9826,13.3017,4.34252,2453.582,36.0735
2023-11-21T02:00:49,2420,42.8014,5.9826,13.3019,4.34321,2453.537,36.0799
2023-11-21T02:03:50,2420,42.8014,5.9826,13.3021,4.34367,2453.582,36.0840
2023-11-21T02:06:49,2420,42.8014,5.9826,13.3027,4.34479,2453.559,36.0938
2023-11-21T02:09:49,2420,42.8014,5.9826,13.3037,4.34369,2453.559,36.0827
2023-11-21T02:12:49,2420,42.8014,5.9826,13.3019,4.34351,2453.551,36.0826
2023-11-21T02:15:49,2420,42.8014,5.9826,13.2990,4.34429,2453.522,36.0926
2023-11-21T02:18:49,2420,42.8014,5.9826,13.3005,4.34372,2453.574,36.0859
2023-11-21T02:21:49,2420,42.8014,5.9826,13.3019,4.34454,2453.567,36.0922
2023-11-21T02:24:49,2420,42.8014,5.9826,13.2977,4.34297,2453.559,36.0815
2023-11-21T02:27:49,2420,42.8014,5.9826,13.3022,4.34261,2453.537,36.0739
2023-11-21T02:30:49,2420,42.8014,5.9826,13.2982,4.34379,2453.559,36.0888
2023-11-21T02:33:49,2420,42.8014,5.9826,13.3038,4.34322,2453.537,36.0782
2023-11-21T02:36:49,2420,42.8014,5.9826,13.2998,4.34413,2453.514,36.0905
2023-11-21T02:39:49,2420,42.8014,5.9826,13.2988,4.34335,2453.537,36.0840
2023-11-21T02:42:49,2420,42.8014,5.9826,13.3018,4.34426,2453.544,36.0897
2023-11-21T02:45:49,2420,42.8014,5.9826,13.3017,4.34364,2453.574,36.0841
2023-11-21T02:48:50,2420,42.8014,5.9826,13.2990,4.34341,2453.537,36.0843
2023-11-21T02:51:49,2420,42.8014,5.9826,13.3008,4.34449,2453.537,36.0928
2023-11-21T02:54:49,2420,42.8014,5.9826,13.2983,4.34429,2453.559,36.0932
2023-11-21T02:57:49,2420,42.8014,5.9826,13.3027,4.34460,2453.559,36.0920
2023-11-21T03:00:49,2420,42.8014,5.9826,13.2992,4.34353,2453.537,36.0854
2023-11-21T03:03:49,2420,42.8014,5.9826,13.3002,4.34465,2453.559,36.0948
2023-11-21T03:06:49,2420,42.8014,5.9826,13.2991,4.34436,2453.559,36.0932
2023-11-21T03:09:49,2420,42.8014,5.9826,13.3010,4.34359,2453.551,36.0843
2023-11-21T03:12:49,2420,42.8014,5.9826,13.3013,4.34476,2453.551,36.0949
2023-11-21T03:15:49,2420,42.8014,5.9826,13.2986,4.34464,2453.537,36.0962
2023-11-21T03:18:49,2420,42.8014,5.9826,13.2982,4.34522,2453.551,36.1021
2023-11-21T03:21:49,2420,42.8014,5.9826,13.3000,4.34437,2453.537,36.0924
2023-11-21T03:24:49,2420,42.8014,5.9826,13.2992,4.34424,2453.537,36.0919
2023-11-21T03:27:49,2420,42.8014,5.9826,13.3000,4.34424,2453.559,36.0913
2023-11-21T03:30:49,2420,42.8014,5.9826,13.2998,4.34426,2453.537,36.0916
2023-11-21T03:33:50,2420,42.8014,5.9826,13.3006,4.34368,2453.537,36.0854
2023-11-21T03:36:49,2420,42.8014,5.9826,13.2986,4.34382,2453.514,36.0887
2023-11-21T03:39:49,2420,42.8014,5.9826,13.3004,4.34406,2453.514,36.0891
2023-11-21T03:42:49,2420,42.8014,5.9826,13.3017,4.34456,2453.537,36.0926
2023-11-21T03:45:49,2420,42.8014,5.9826,13.3019,4.34431,2453.559,36.0900
2023-11-21T03:48:49,2420,42.8014,5.9826,13.3010,4.34489,2453.537,36.0964
2023-11-21T03:51:49,2420,42.8014,5.9826,13.3037,4.34398,2453.537,36.0853
2023-11-21T03:54:49,2420,42.8014,5.9826,13.3016,4.34401,2453.514,36.0876
2023-11-21T03:57:49,2420,42.8014,5.9826,13.3015,4.34411,2453.551,36.0886
2023-11-21T04:00:50,2420,42.8014,5.9826,13.3013,4.34415,2453.544,36.0891
2023-11-21T04:03:49,2420,42.8014,5.9826,13.2984,4.34352,2453.551,36.0860
2023-11-21T04:06:49,2420,42.8014,5.9826,13.3019,4.34390,2453.559,36.0863
2023-11-21T04:09:49,2420,42.8014,5.9826,13.3034,4.34501,2453.582,36.0952
2023-11-21T04:12:49,2420,42.8014,5.9826,13.3043,4.34405,2453.551,36.0854
2023-11-21T04:15:49,2420,42.8014,5.9826,13.3036,4.34452,2453.528,36.0905
2023-11-21T04:18:49,2420,42.8014,5.9826,13.3044,4.34387,2453.544,36.0837
2023-11-21T04:21:49,2420,42.8014,5.9826,13.3041,4.34379,2453.559,36.0833
2023-11-21T04:24:49,2420,42.8014,5.9826,13.3029,4.34376,2453.522,36.0840
2023-11-21T04:27:49,2420,42.8014,5.9826,13.3021,4.34482,2453.537,36.0947
2023-11-21T04:30:49,2420,42.8014,5.9826,13.3010,4.34349,2453.544,36.0833
2023-11-21T04:33:49,2420,42.8014,5.9826,13.2980,4.34395,2453.537,36.0903
2023-11-21T04:36:49,2420,42.8014,5.9826,13.2989,4.34372,2453.537,36.0874
2023-11-21T04:39:49,2420,42.8014,5.9826,13.3010,4.34320,2453.522,36.0806
2023-11-21T04:42:49,2420,42.8014,5.9826,13.3004,4.34286,2453.559,36.0780
2023-11-21T04:45:49,2420,42.8014,5.9826,13.2991,4.34352,2453.522,36.0854
2023-11-21T04:48:49,2420,42.8014,5.9826,13.2978,4.34390,2453.559,36.0901
2023-11-21T04:51:49,2420,42.8014,5.9826,13.2988,4.34318,2453.522,36.0824
2023-11-21T04:54:50,2420,42.8014,5.9826,13.3002,4.34312,2453.537,36.0805
2023-11-21T04:57:49,2420,42.8014,5.9826,13.3007,4.34328,2453.559,36.0816
2023-11-21T05:00:49,2420,42.8014,5.9826,13.3036,4.34330,2453.528,36.0791
2023-11-21T05:03:49,2420,42.8014,5.9826,13.3015,4.34397,2453.537,36.0873
2023-11-21T05:06:49,2420,42.8014,5.9826,13.3032,4.34356,2453.514,36.0819
2023-11-21T05:09:49,2420,42.8014,5.9826,13.3015,4.34377,2453.551,36.0855
2023-11-21T05:12:49,2420,42.8014,5.9826,13.3000,4.34351,2453.514,36.0843
2023-11-21T05:15:49,2420,42.8014,5.9826,13.3010,4.34438,2453.514,36.0916
2023-11-21T05:18:49,2420,42.8014,5.9826,13.3007,4.34345,2453.514,36.0833
2023-11-21T05:21:49,2420,42.8014,5.9826,13.3033,4.34367,2453.514,36.0829
2023-11-21T05:24:49,2420,42.8014,5.9826,13.3056,4.34372,2453.514,36.0812
2023-11-21T05:27:49,2420,42.8014,5.9826,13.3041,4.34422,2453.537,36.0872
2023-11-21T05:30:49,2420,42.8014,5.9826,13.3001,4.34394,2453.514,36.0883
2023-11-21T05:33:49,2420,42.8014,5.9826,13.3023,4.34352,2453.522,36.0823
2023-11-21T05:36:49,2420,42.8014,5.9826,13.3040,4.34406,2453.537,36.0858
2023-11-21T05:39:49,2420,42.8014,5.9826,13.3021,4.34360,2453.514,36.0833
2023-11-21T05:42:49,2420,42.8014,5.9826,13.2990,4.34393,2453.537,36.0893
2023-11-21T05:45:49,2420,42.8014,5.9826,13.3007,4.34313,2453.537,36.0802
2023-11-21T05:48:49,2420,42.8014,5.9826,13.3004,4.34257,2453.499,36.0753
2023-11-21T05:51:49,2420,42.8014,5.9826,13.3021,4.34390,2453.514,36.0861
2023-11-21T05:54:50,2420,42.8014,5.9826,13.2989,4.34356,2453.514,36.0859
2023-11-21T05:57:49,2420,42.8014,5.9826,13.3002,4.34397,2453.514,36.0885
2023-11-21T06:00:49,2420,42.8014,5.9826,13.2982,4.34322,2453.514,36.0834
2023-11-21T06:03:49,2420,42.8014,5.9826,13.2985,4.34320,2453.514,36.0830
2023-11-21T06:06:49,2420,42.8014,5.9826,13.2989,4.34298,2453.537,36.0804
2023-11-21T06:09:49,2420,42.8014,5.9826,13.2993,4.34327,2453.522,36.0829
2023-11-21T06:12:49,2420,42.8014,5.9826,13.2985,4.34309,2453.514,36.0820
2023-11-21T06:15:49,2420,42.8014,5.9826,13.2990,4.34398,2453.514,36.0897
2023-11-21T06:18:49,2420,42.8014,5.9826,13.2983,4.34339,2453.559,36.0848
2023-11-21T06:21:49,2420,42.8014,5.9826,13.2995,4.34338,2453.491,36.0837
2023-11-21T06:24:49,2420,42.8014,5.9826,13.2998,4.34313,2453.499,36.0810
2023-11-21T06:27:49,2420,42.8014,5.9826,13.2997,4.34260,2453.537,36.0762
2023-11-21T06:30:49,2420,42.8014,5.9826,13.3011,4.34277,2453.514,36.0764
2023-11-21T06:33:49,2420,42.8014,5.9826,13.2996,4.34376,2453.551,36.0871
2023-11-21T06:36:49,2420,42.8014,5.9826,13.2992,4.34375,2453.491,36.0874
2023-11-21T06:39:49,2420,42.8014,5.9826,13.3008,4.34387,2453.491,36.0870
2023-11-21T06:42:49,2420,42.8014,5.9826,13.2993,4.34366,2453.551,36.0864
2023-11-21T06:45:49,2420,42.8014,5.9826,13.2996,4.34313,2453.528,36.0813
2023-11-21T06:48:49,2420,42.8014,5.9826,13.3025,4.34313,2453.514,36.0785
2023-11-21T06:51:49,2420,42.8014,5.9826,13.3017,4.34331,2453.491,36.0810
2023-11-21T06:54:49,2420,42.8014,5.9826,13.3032,4.34406,2453.514,36.0866
2023-11-21T06:57:49,2420,42.8014,5.9826,13.3010,4.34367,2453.499,36.0850
2023-11-21T07:00:49,2420,42.8014,5.9826,13.3026,4.34343,2453.528,36.0813
2023-11-21T07:03:49,2420,42.8014,5.9826,13.2972,4.34264,2453.528,36.0789
2023-11-21T07:06:49,2420,42.8014,5.9826,13.2996,4.34317,2453.514,36.0817
2023-11-21T07:09:49,2420,42.8014,5.9826,13.3005,4.34337,2453.514,36.0826
2023-11-21T07:12:49,2420,42.8014,5.9826,13.3024,4.34398,2453.537,36.0866
2023-11-21T07:15:49,2420,42.8014,5.9826,13.3006,4.34356,2453.491,36.0843
2023-11-21T07:18:49,2420,42.8014,5.9826,13.2992,4.34375,2453.514,36.0874
2023-11-21T07:21:49,2420,42.8014,5.9826,13.3008,4.34273,2453.491,36.0763
2023-11-21T07:24:49,2420,42.8014,5.9826,13.3054,4.34288,2453.537,36.0735
2023-11-21T07:27:49,2420,42.8014,5.9826,13.3002,4.34353,2453.514,36.0845
2023-11-21T07:30:49,2420,42.8014,5.9826,13.3020,4.34346,2453.514,36.0821
2023-11-21T07:33:49,2420,42.8014,5.9826,13.2995,4.34385,2453.514,36.0881
2023-11-21T07:36:49,2420,42.8014,5.9826,13.3004,4.34380,2453.514,36.0867
2023-11-21T07:39:49,2420,42.8014,5.9826,13.2989,4.34407,2453.537,36.0906
2023-11-21T07:42:49,2420,42.8014,5.9826,13.3034,4.34350,2453.491,36.0811
2023-11-21T07:45:49,2420,42.8014,5.9826,13.3032,4.34303,2453.537,36.0770
2023-11-21T07:48:49,2420,42.8014,5.9826,13.3008,4.34295,2453.559,36.0785
2023-11-21T07:51:49,2420,42.8014,5.9826,13.3036,4.34331,2453.551,36.0792
2023-11-21T07:54:49,2420,42.8014,5.9826,13.3029,4.34333,2453.537,36.0801
2023-11-21T07:57:49,2420,42.8014,5.9826,13.3008,4.34317,2453.514,36.0805
2023-11-21T08:00:50,2420,42.8014,5.9826,13.3012,4.34351,2453.514,36.0833
2023-11-21T08:03:49,2420,42.8014,5.9826,13.3044,4.34369,2453.514,36.0820
2023-11-21T08:06:49,2420,42.8014,5.9826,13.2985,4.34311,2453.491,36.0821
2023-11-21T08:09:49,2420,42.8014,5.9826,13.3015,4.34366,2453.551,36.0844
2023-11-21T08:12:49,2420,42.8014,5.9826,13.3030,4.34413,2453.514,36.0874
2023-11-21T08:15:49,2420,42.8014,5.9826,13.3027,4.34278,2453.514,36.0750
2023-11-21T08:18:49,2420,42.8014,5.9826,13.3005,4.34348,2453.537,36.0837
2023-11-21T08:21:49,2420,42.8014,5.9826,13.3038,4.34425,2453.528,36.0878
2023-11-21T08:24:49,2420,42.8014,5.9826,13.3062,4.34283,2453.522,36.0724
2023-11-21T08:27:49,2420,42.8014,5.9826,13.3025,4.34358,2453.514,36.0828
2023-11-21T08:30:49,2420,42.8014,5.9826,13.3062,4.34278,2453.469,36.0719
2023-11-21T08:33:49,2420,42.8014,5.9826,13.3034,4.34259,2453.454,36.0727
2023-11-21T08:36:49,2420,42.8014,5.9826,13.3010,4.34172,2453.446,36.0668
2023-11-21T08:39:49,2420,42.8014,5.9826,13.2993,4.34222,2453.491,36.0731
2023-11-21T08:42:49,2420,42.8014,5.9826,13.3043,4.34108,2453.491,36.0577
2023-11-21T08:45:49,2420,42.8014,5.9826,13.3008,4.34039,2453.491,36.0546
2023-11-21T08:48:49,2420,42.8014,5.9826,13.3049,4.33999,2453.469,36.0470
2023-11-21T08:51:49,2420,42.8014,5.9826,13.3091,4.34169,2453.491,36.0590
2023-11-21T08:54:49,2420,42.8014,5.9826,13.3017,4.34061,2453.469,36.0558
2023-11-21T08:57:49,2420,42.8014,5.9826,13.3054,4.34016,2453.454,36.0481
2023-11-21T09:00:49,2420,42.8014,5.9826,13.3025,4.34164,2453.491,36.0647
2023-11-21T09:03:49,2420,42.8014,5.9826,13.3055,4.34089,2453.514,36.0548
2023-11-21T09:06:49,2420,42.8014,5.9826,13.3026,4.34132,2453.514,36.0615
2023-11-21T09:09:49,2420,42.8014,5.9826,13.3087,4.34153,2453.514,36.0578
2023-11-21T09:12:49,2420,42.8014,5.9826,13.3014,4.34184,2453.514,36.0675
2023-11-21T09:15:49,2420,42.8014,5.9826,13.2996,4.34027,2453.469,36.0545
2023-11-21T09:18:49,2420,42.8014,5.9826,13.3105,4.34116,2453.528,36.0528
2023-11-21T09:21:50,2420,42.8014,5.9826,13.3048,4.34162,2453.514,36.0623
2023-11-21T09:24:49,2420,42.8014,5.9826,13.3070,4.34069,2453.491,36.0516
2023-11-21T09:27:49,2420,42.8014,5.9826,13.3029,4.34122,2453.514,36.0603
2023-11-21T09:30:49,2420,42.8014,5.9826,13.3038,4.34057,2453.514,36.0534
2023-11-21T09:33:49,2420,42.8014,5.9826,13.2998,4.34131,2453.514,36.0640
2023-11-21T09:36:49,2420,42.8014,5.9826,13.3001,4.34036,2453.537,36.0548
2023-11-21T09:39:49,2420,42.8014,5.9826,13.3067,4.34058,2453.514,36.0508
2023-11-21T09:42:49,2420,42.8014,5.9826,13.2987,4.34060,2453.537,36.0585
2023-11-21T09:45:49,2420,42.8014,5.9826,13.3071,4.34107,2453.537,36.0551
2023-11-21T09:48:49,2420,42.8014,5.9826,13.3005,4.34027,2453.528,36.0537
2023-11-21T09:51:49,2420,42.8014,5.9826,13.3033,4.34021,2453.522,36.0505
2023-11-21T09:54:49,2420,42.8014,5.9826,13.3029,4.34097,2453.514,36.0580
2023-11-21T09:57:49,2420,42.8014,5.9826,13.3053,4.33932,2453.514,36.0404
2023-11-21T10:00:49,2420,42.8014,5.9826,13.3013,4.34004,2453.537,36.0508
2023-11-21T10:03:49,2420,42.8014,5.9826,13.3010,4.34048,2453.514,36.0552
2023-11-21T10:06:49,2420,42.8014,5.9826,13.3007,4.34071,2453.514,36.0576
2023-11-21T10:09:49,2420,42.8014,5.9826,13.3010,4.34029,2453.514,36.0534
2023-11-21T10:12:49,2420,42.8014,5.9826,13.3024,4.34123,2453.537,36.0609
2023-11-21T10:15:49,2420,42.8014,5.9826,13.3038,4.34015,2453.537,36.0495
2023-11-21T10:18:49,2420,42.8014,5.9826,13.3017,4.34009,2453.537,36.0509
2023-11-21T10:21:49,2420,42.8014,5.9826,13.3041,4.33931,2453.574,36.0413
2023-11-21T10:24:49,2420,42.8014,5.9826,13.3033,4.34091,2453.559,36.0571
2023-11-21T10:27:49,2420,42.8014,5.9826,13.3015,4.34033,2453.514,36.0534
2023-11-21T10:30:49,2420,42.8014,5.9826,13.3010,4.34046,2453.604,36.0550
2023-11-21T10:33:49,2420,42.8014,5.9826,13.3032,4.33988,2453.627,36.0475
2023-11-21T10:36:49,2420,42.8014,5.9826,13.3047,4.34030,2453.627,36.0501
2023-11-21T10:39:49,2420,42.8014,5.9826,13.3018,4.34027,2453.604,36.0524
2023-11-21T10:42:49,2420,42.8014,5.9826,13.3040,4.34037,2453.604,36.0513
2023-11-21T10:45:49,2420,42.8014,5.9826,13.3041,4.33997,2453.619,36.0475
2023-11-21T10:48:49,2420,42.8014,5.9826,13.3008,4.34032,2453.582,36.0539
2023-11-21T10:51:49,2420,42.8014,5.9826,13.3020,4.33950,2453.627,36.0451
2023-11-21T10:54:49,2420,42.8014,5.9826,13.3023,4.33961,2453.604,36.0458
2023-11-21T10:57:49,2420,42.8014,5.9826,13.3026,4.33970,2453.604,36.0463
2023-11-21T11:00:49,2420,42.8014,5.9826,13.3011,4.33959,2453.604,36.0467
2023-11-21T11:03:49,2420,42.8014,5.9826,13.2996,4.33931,2453.627,36.0455
2023-11-21T11:06:49,2420,42.8014,5.9826,13.2995,4.33886,2453.627,36.0414
2023-11-21T11:09:49,2420,42.8014,5.9826,13.2990,4.33897,2453.627,36.0429
2023-11-21T11:12:49,2420,42.8014,5.9826,13.2993,4.33913,2453.590,36.0441
2023-11-21T11:15:49,2420,42.8014,5.9826,13.3000,4.33915,2453.604,36.0436
2023-11-21T11:18:49,2420,42.8014,5.9826,13.3021,4.33906,2453.604,36.0409
2023-11-21T11:21:49,2420,42.8014,5.9826,13.3019,4.33960,2453.604,36.0461
2023-11-21T11:24:49,2420,42.8014,5.9826,13.2997,4.33884,2453.627,36.0411
2023-11-21T11:27:49,2420,42.8014,5.9826,13.3025,4.33902,2453.627,36.0401
2023-11-21T11:30:49,2420,42.8014,5.9826,13.3029,4.33905,2453.627,36.0401
2023-11-21T11:33:49,2420,42.8014,5.9826,13.3011,4.33959,2453.627,36.0468
2023-11-21T11:36:49,2420,42.8014,5.9826,13.3029,4.33915,2453.612,36.0410
2023-11-21T11:39:49,2420,42.8014,5.9826,13.3009,4.33923,2453.649,36.0435
2023-11-21T11:42:49,2420,42.8014,5.9826,13.3007,4.33910,2453.604,36.0425
2023-11-21T11:45:49,2420,42.8014,5.9826,13.3004,4.33920,2453.649,36.0437
2023-11-21T11:48:49,2420,42.8014,5.9826,13.3005,4.33862,2453.627,36.0382
2023-11-21T11:51:50,2420,42.8014,5.9826,13.3012,4.33850,2453.635,36.0364
2023-11-21T11:54:49,2420,42.8014,5.9826,13.3024,4.33874,2453.649,36.0375
2023-11-21T11:57:49,2420,42.8014,5.9826,13.3020,4.33917,2453.627,36.0420
2023-11-21T12:00:49,2420,42.8014,5.9826,13.3011,4.33871,2453.687,36.0385
2023-11-21T12:03:49,2420,42.8014,5.9826,13.3012,4.33860,2453.649,36.0373
2023-11-21T12:06:49,2420,42.8014,5.9826,13.2998,4.33901,2453.672,36.0425
2023-11-21T12:09:49,2420,42.8014,5.9826,13.3012,4.33866,2453.664,36.0379
2023-11-21T12:12:49,2420,42.8014,5.9826,13.3005,4.33876,2453.649,36.0395
2023-11-21T12:15:49,2420,42.8014,5.9826,13.3011,4.33794,2453.687,36.0312
2023-11-21T12:18:49,2420,42.8014,5.9826,13.3008,4.33823,2453.672,36.0343
2023-11-21T12:21:49,2420,42.8014,5.9826,13.3005,4.33784,2453.664,36.0309
2023-11-21T12:24:49,2420,42.8014,5.9826,13.2991,4.33789,2453.649,36.0326
2023-11-21T12:27:50,2420,42.8014,5.9826,13.3015,4.33893,2453.649,36.0402
2023-11-21T12:30:49,2420,42.8014,5.9826,13.3006,4.33889,2453.649,36.0406
2023-11-21T12:33:49,2420,42.8014,5.9826,13.3019,4.33824,2453.695,36.0333
2023-11-21T12:36:49,2420,42.8014,5.9826,13.3002,4.33792,2453.649,36.0319
2023-11-21T12:39:49,2420,42.8014,5.9826,13.2982,4.33879,2453.664,36.0419
2023-11-21T12:42:49,2420,42.8014,5.9826,13.3005,4.33880,2453.672,36.0399
2023-11-21T12:45:49,2420,42.8014,5.9826,13.2993,4.33874,2453.687,36.0405
2023-11-21T12:48:49,2420,42.8014,5.9826,13.2980,4.33866,2453.635,36.0409
2023-11-21T12:51:49,2420,42.8014,5.9826,13.3010,4.33851,2453.687,36.0367
2023-11-21T12:54:49,2420,42.8014,5.9826,13.3019,4.33865,2453.672,36.0372
2023-11-21T12:57:49,2420,42.8014,5.9826,13.3004,4.33888,2453.649,36.0408
2023-11-21T13:00:49,2420,42.8014,5.9826,13.3016,4.33946,2453.717,36.0450
2023-11-21T13:03:49,2420,42.8014,5.9826,13.3000,4.33867,2453.695,36.0392
2023-11-21T13:06:49,2420,42.8014,5.9826,13.3015,4.33843,2453.687,36.0356
2023-11-21T13:09:49,2420,42.8014,5.9826,13.2995,4.33789,2453.649,36.0323
2023-11-21T13:12:49,2420,42.8014,5.9826,13.3009,4.33792,2453.672,36.0313
2023-11-21T13:15:49,2420,42.8014,5.9826,13.3030,4.33765,2453.672,36.0268
2023-11-21T13:18:49,2420,42.8014,5.9826,13.2991,4.33725,2453.709,36.0267
2023-11-21T13:21:49,2420,42.8014,5.9826,13.2987,4.33755,2453.695,36.0298
2023-11-21T13:24:49,2420,42.8014,5.9826,13.3012,4.33733,2453.649,36.0255
2023-11-21T13:27:49,2420,42.8014,5.9826,13.3007,4.33743,2453.649,36.0269
2023-11-21T13:30:49,2420,42.8014,5.9826,13.3012,4.33734,2453.672,36.0256
2023-11-21T13:33:49,2420,42.8014,5.9826,13.3006,4.33791,2453.717,36.0314
2023-11-21T13:36:49,2420,42.8014,5.9826,13.2994,4.33774,2453.695,36.0310
2023-11-21T13:39:49,2420,42.8014,5.9826,13.2993,4.33759,2453.680,36.0297
2023-11-21T13:42:49,2420,42.8014,5.9826,13.3015,4.33701,2453.695,36.0223
2023-11-21T13:45:49,2420,42.8014,5.9826,13.3009,4.33708,2453.672,36.0235
2023-11-21T13:48:49,2420,42.8014,5.9826,13.2986,4.33714,2453.695,36.0261
2023-11-21T13:51:49,2420,42.8014,5.9826,13.3004,4.33711,2453.672,36.0242
2023-11-21T13:54:49,2420,42.8014,5.9826,13.2975,4.33781,2453.687,36.0334
2023-11-21T13:57:49,2420,42.8014,5.9826,13.2975,4.33750,2453.717,36.0305
2023-11-21T14:00:49,2420,42.8014,5.9826,13.3016,4.33739,2453.672,36.0258
2023-11-21T14:03:49,2420,42.8014,5.9826,13.2975,4.33737,2453.695,36.0293
2023-11-21T14:06:49,2420,42.8014,5.9826,13.3006,4.33721,2453.695,36.0249
2023-11-21T14:09:49,2420,42.8014,5.9826,13.3000,4.33708,2453.657,36.0243
2023-11-21T14:12:49,2420,42.8014,5.9826,13.2983,4.33699,2453.672,36.0250
2023-11-21T14:15:49,2420,42.8014,5.9826,13.2978,4.33726,2453.687,36.0280
2023-11-21T14:18:49,2420,42.8014,5.9826,13.3001,4.33744,2453.695,36.0275
2023-11-21T14:21:49,2420,42.8014,5.9826,13.2996,4.33726,2453.672,36.0264
2023-11-21T14:24:49,2420,42.8014,5.9826,13.3003,4.33695,2453.657,36.0227
2023-11-21T14:27:49,2420,42.8014,5.9826,13.2998,4.33677,2453.695,36.0216
2023-11-21T14:30:50,2420,42.8014,5.9826,13.2974,4.33677,2453.695,36.0238
2023-11-21T14:33:49,2420,42.8014,5.9826,13.2990,4.33671,2453.695,36.0217
2023-11-21T14:36:49,2420,42.8014,5.9826,13.2975,4.33620,2453.680,36.0184
2023-11-21T14:39:49,2420,42.8014,5.9826,13.2979,4.33686,2453.672,36.0241
2023-11-21T14:42:49,2420,42.8014,5.9826,13.2975,4.33689,2453.657,36.0248
2023-11-21T14:45:49,2420,42.8014,5.9826,13.3017,4.33708,2453.695,36.0227
2023-11-21T14:48:49,2420,42.8014,5.9826,13.2994,4.33703,2453.672,36.0243
2023-11-21T14:51:49,2420,42.8014,5.9826,13.3007,4.33685,2453.649,36.0215
2023-11-21T14:54:49,2420,42.8014,5.9826,13.3004,4.33693,2453.695,36.0224
2023-11-21T14:57:49,2420,42.8014,5.9826,13.2979,4.33704,2453.680,36.0258
2023-11-21T15:00:49,2420,42.8014,5.9826,13.2974,4.33699,2453.680,36.0259
2023-11-21T15:03:49,2420,42.8014,5.9826,13.2999,4.33634,2453.695,36.0175
2023-11-21T15:06:49,2420,42.8014,5.9826,13.2971,4.33620,2453.695,36.0187
2023-11-21T15:09:49,2420,42.8014,5.9826,13.2995,4.33616,2453.695,36.0162
2023-11-21T15:12:49,2420,42.8014,5.9826,13.2979,4.33698,2453.687,36.0252
2023-11-21T15:15:49,2420,42.8014,5.9826,13.2989,4.33660,2453.695,36.0208
2023-11-21T15:18:49,2420,42.8014,5.9826,13.2997,4.33706,2453.672,36.0243
2023-11-21T15:21:49,2420,42.8014,5.9826,13.2985,4.33618,2453.680,36.0173
2023-11-21T15:24:50,2420,42.8014,5.9826,13.2998,4.33602,2453.664,36.0145
2023-11-21T15:27:49,2420,42.8014,5.9826,13.3004,4.33598,2453.657,36.0137
2023-11-21T15:30:49,2420,42.8014,5.9826,13.2975,4.33607,2453.672,36.0171
2023-11-21T15:33:49,2420,42.8014,5.9826,13.3002,4.33558,2453.672,36.0101
2023-11-21T15:36:49,2420,42.8014,5.9826,13.2974,4.33570,2453.680,36.0138
2023-11-21T15:39:49,2420,42.8014,5.9826,13.2996,4.33590,2453.695,36.0136
2023-11-21T15:42:49,2420,42.8014,5.9826,13.3002,4.33499,2453.672,36.0046
2023-11-21T15:45:49,2420,42.8014,5.9826,13.2978,4.33503,2453.672,36.0071
2023-11-21T15:48:49,2420,42.8014,5.9826,13.2998,4.33493,2453.687,36.0044
2023-11-21T15:51:49,2420,42.8014,5.9826,13.3001,4.33489,2453.672,36.0037
2023-11-21T15:54:49,2420,42.8014,5.9826,13.2991,4.33527,2453.672,36.0082
2023-11-21T15:57:50,2420,42.8014,5.9826,13.3009,4.33435,2453.672,35.9980
2023-11-21T16:00:49,2420,42.8014,5.9826,13.2992,4.33493,2453.664,36.0050
2023-11-21T16:03:49,2420,42.8014,5.9826,13.2999,4.33586,2453.627,36.0130